カタログに戻る

STARLINK-30560

運用中通信VLEO
NORAD 58038·PAYLOAD·🇺🇸 United States

打ち上げ Oct 9, 2023 から Vandenberg Space Force Base

Loading…

次のパス (今後24時間)

TLE

最新Source: CelesTrak SupGP

元期: Sep 15, 2026, 03:24 UTC

1 58038C 23156L   26258.14215278 -.00018216  00000+0 -53804-3 0  2584
2 58038  53.1573 274.6223 0001151  92.8435 314.0178 15.34409751    19

AllMySatでSTARLINK-30560をリアルタイム追跡

Download on the App Store